DELTA 1 R/B, 738

Orbit data source: Space-Track

DELTA 1 R/B, 738 is space debris originally from a launch on Tue, 21 Jan 1964 UTC launched from the Air Force Eastern Test Range (AFETR). Debris objects in space refer to the collection of defunct objects orbiting the Earth. Examples of debris include non-operational satellites, rocket bodies, and fragments generated from explosions, collisions, or faulty payload assembly.

Loading next visibility...
Identifier
738, 1964-003B
Orbit
Active
Country
Flag of USUS
Related business
Manufacturer
ABL
Mission
Spacecraft
Bus & Motor
ALTAIR, Unknown motor
Mass
24 kg wet, 24 kg dry
Launch date (UTC)
1964-01-21 (62 years ago)
Launch vehicle
Unknown
Launch site
Air Force Eastern Test Range (AFETR)
Object type
Payload
Rocket body
Debris
Shape & HBR
Cyl, 0.8 m
Radar Cross Section
0.687 m², Medium (>0.1 m² and < 1m²)

Expand to show TLE details & history
Last TLE update: 16 hours ago

TLE from 16 hours ago
0 DELTA 1 R/B
1 00738U 64003B   25259.21939474 -.00000025  00000-0  00000-0 0  9991
2 00738  46.4579 302.3142 2604212  66.5637 318.6362  7.39344569665219
Epoch: 2025-09-16T05:15Z
TLE epoch observation values (Epoch: 2025-09-16T05:15:55.705Z)
Latitude
-0.00003°
Longitude
-132.08076°
Altitude
3,021.102 km
Speed
7.001 km/s
True Right ascension
20h 09m 15s
True Declination
0° 00' 00"
Sunlit
Object was in daylight at epoch
Visualization orbit readout
Latitude
Unknown
Longitude
Unknown
Altitude
Unknown
Speed
Unknown
Apparent Right ascension
Unknown
Apparent Declination
Unknown
Sunlit
N/A
Visualization observer readout
Local Sidereal Time
14:27:34
Azimuth
Unknown
Elevation
Unknown
Doppler factor
Unknown
Orbital elements
Apogee altitude
7,651.816 km
Perigee altitude
1,854.235 km
Semi-major axis
11,131.163 km
Eccentricity
0.26042
Inclination
46.4579°
RAAN
302.3142°
Arg. of periapsis
66.5637°
True anomaly
293.5013°
Mean anomaly
318.6362°
Eccentric anomaly
306.66788°
Mean motion
1.84813 °/min
Orbital period
194.79 mins
BSTAR
0
Loading maneuver chart data...
Computing Atmospheric mass density...
Loading historical data...
Loading historical data...
Loading historical data...
Loading historical data...
Loading historical data...
Loading historical data...
Loading historical data...
Other satellites on launch #3 in the year 1964 (1964-01-21 UTC)

Documentation

Showing up to 5 results
|